Time,TemperatureF,DewpointF,PressureIn,WindDirection,WindDirectionDegrees,WindSpeedMPH,WindSpeedGustMPH,Humidity,HourlyPrecipIn,Conditions,Clouds,dailyrainin,SoftwareType,DateUTC
2013-11-08 00:02:00,38.3,27.2,30.30,North,1,0.0,0.0,64,0.00,CLR,,0.00,WeatherDisplay:10.37,2013-11-08 06:02:00,
2013-11-08 00:07:00,38.3,27.2,30.30,North,1,0.0,0.0,64,0.00,CLR,,0.00,WeatherDisplay:10.37,2013-11-08 06:07:00,
2013-11-08 00:12:00,38.5,27.4,30.30,North,1,0.0,0.0,64,0.00,CLR,,0.00,WeatherDisplay:10.37,2013-11-08 06:12:00,
2013-11-08 00:17:00,38.5,27.4,30.29,North,1,0.0,0.0,64,0.00,CLR,,0.00,WeatherDisplay:10.37,2013-11-08 06:17:00,
2013-11-08 00:22:00,38.5,27.0,30.29,North,1,0.0,0.0,63,0.00,CLR,,0.00,WeatherDisplay:10.37,2013-11-08 06:22:00,
2013-11-08 00:27:00,38.5,27.0,30.29,North,1,0.0,0.0,63,0.00,CLR,,0.00,WeatherDisplay:10.37,2013-11-08 06:27:00,
2013-11-08 00:32:00,38.3,26.8,30.29,North,1,0.0,0.0,63,0.00,CLR,,0.00,WeatherDisplay:10.37,2013-11-08 06:32:00,
2013-11-08 00:37:00,38.3,26.8,30.29,North,1,0.0,0.0,63,0.00,CLR,,0.00,WeatherDisplay:10.37,2013-11-08 06:37:00,
2013-11-08 00:42:00,38.1,26.6,30.29,North,1,0.0,0.0,63,0.00,CLR,,0.00,WeatherDisplay:10.37,2013-11-08 06:42:00,
2013-11-08 00:47:00,38.1,26.6,30.29,North,1,0.0,0.0,63,0.00,CLR,,0.00,WeatherDisplay:10.37,2013-11-08 06:47:00,
2013-11-08 00:52:00,38.1,26.6,30.29,North,1,0.0,0.0,63,0.00,CLR,,0.00,WeatherDisplay:10.37,2013-11-08 06:52:00,
2013-11-08 00:57:00,37.8,26.3,30.28,North,1,0.0,0.0,63,0.00,CLR,,0.00,WeatherDisplay:10.37,2013-11-08 06:57:00,
2013-11-08 01:02:00,37.8,26.3,30.28,North,1,0.0,0.0,63,0.00,CLR,,0.00,WeatherDisplay:10.37,2013-11-08 07:02:00,
2013-11-08 01:07:00,37.8,26.3,30.28,North,1,0.0,0.0,63,0.00,CLR,,0.00,WeatherDisplay:10.37,2013-11-08 07:07:00,
2013-11-08 01:12:00,37.8,26.3,30.28,North,1,0.0,0.0,63,0.00,CLR,,0.00,WeatherDisplay:10.37,2013-11-08 07:12:00,
2013-11-08 01:17:00,37.6,26.1,30.27,North,1,0.0,0.0,63,0.00,CLR,,0.00,WeatherDisplay:10.37,2013-11-08 07:17:00,
2013-11-08 01:22:00,37.4,25.9,30.27,North,1,0.0,0.0,63,0.00,CLR,,0.00,WeatherDisplay:10.37,2013-11-08 07:22:00,
2013-11-08 01:27:00,37.2,25.8,30.27,North,1,0.0,0.0,63,0.00,CLR,,0.00,WeatherDisplay:10.37,2013-11-08 07:27:00,
2013-11-08 01:32:00,37.2,25.8,30.27,North,1,0.0,0.0,63,0.00,CLR,,0.00,WeatherDisplay:10.37,2013-11-08 07:32:00,
2013-11-08 01:37:00,37.2,25.8,30.27,North,1,0.0,0.0,63,0.00,CLR,,0.00,WeatherDisplay:10.37,2013-11-08 07:37:00,
2013-11-08 01:42:00,37.2,25.8,30.27,North,1,0.0,0.0,63,0.00,CLR,,0.00,WeatherDisplay:10.37,2013-11-08 07:42:00,
2013-11-08 01:47:00,37.2,25.8,30.27,North,1,0.0,0.0,63,0.00,CLR,,0.00,WeatherDisplay:10.37,2013-11-08 07:47:00,
2013-11-08 01:52:00,37.2,25.8,30.27,North,1,0.0,0.0,63,0.00,CLR,,0.00,WeatherDisplay:10.37,2013-11-08 07:52:00,
2013-11-08 01:57:00,37.0,25.2,30.26,North,1,0.0,0.0,62,0.00,CLR,,0.00,WeatherDisplay:10.37,2013-11-08 07:57:00,
2013-11-08 02:02:00,37.0,25.2,30.26,North,1,0.0,0.0,62,0.00,CLR,,0.00,WeatherDisplay:10.37,2013-11-08 08:02:00,
2013-11-08 02:07:00,37.0,25.2,30.26,North,1,0.0,0.0,62,0.00,CLR,,0.00,WeatherDisplay:10.37,2013-11-08 08:07:00,
2013-11-08 02:12:00,37.0,25.2,30.26,North,1,0.0,0.0,62,0.00,CLR,,0.00,WeatherDisplay:10.37,2013-11-08 08:12:00,
2013-11-08 02:17:00,37.0,25.2,30.26,North,1,0.0,0.0,62,0.00,CLR,,0.00,WeatherDisplay:10.37,2013-11-08 08:17:00,
2013-11-08 02:22:00,37.0,25.2,30.26,North,1,0.0,0.0,62,0.00,CLR,,0.00,WeatherDisplay:10.37,2013-11-08 08:22:00,
2013-11-08 02:27:00,36.9,25.0,30.26,North,1,0.0,0.0,62,0.00,CLR,,0.00,WeatherDisplay:10.37,2013-11-08 08:27:00,
2013-11-08 02:32:00,36.9,25.0,30.26,North,1,0.0,0.0,62,0.00,CLR,,0.00,WeatherDisplay:10.37,2013-11-08 08:32:00,
2013-11-08 02:37:00,36.9,25.0,30.25,North,1,0.0,0.0,62,0.00,CLR,,0.00,WeatherDisplay:10.37,2013-11-08 08:37:00,
2013-11-08 02:42:00,36.9,25.0,30.26,North,1,0.0,0.0,62,0.00,CLR,,0.00,WeatherDisplay:10.37,2013-11-08 08:42:00,
2013-11-08 02:47:00,36.9,25.0,30.26,North,1,0.0,0.0,62,0.00,CLR,,0.00,WeatherDisplay:10.37,2013-11-08 08:47:00,
2013-11-08 02:52:00,36.9,25.0,30.26,North,1,0.0,0.0,62,0.00,CLR,,0.00,WeatherDisplay:10.37,2013-11-08 08:52:00,
2013-11-08 02:57:00,36.9,25.0,30.26,North,1,0.0,0.0,62,0.00,CLR,,0.00,WeatherDisplay:10.37,2013-11-08 08:57:00,
2013-11-08 03:02:00,37.0,25.2,30.26,North,1,0.0,0.0,62,0.00,CLR,,0.00,WeatherDisplay:10.37,2013-11-08 09:02:00,
2013-11-08 03:07:00,36.9,25.0,30.26,North,1,0.0,0.0,62,0.00,CLR,,0.00,WeatherDisplay:10.37,2013-11-08 09:07:00,
2013-11-08 03:12:00,36.9,25.0,30.25,North,1,0.0,0.0,62,0.00,CLR,,0.00,WeatherDisplay:10.37,2013-11-08 09:12:00,
2013-11-08 03:17:00,36.7,24.9,30.24,North,1,0.0,0.0,62,0.00,CLR,,0.00,WeatherDisplay:10.37,2013-11-08 09:17:00,
2013-11-08 03:22:00,36.7,24.9,30.24,North,1,0.0,0.0,62,0.00,CLR,,0.00,WeatherDisplay:10.37,2013-11-08 09:22:00,
2013-11-08 03:27:00,36.7,24.9,30.24,North,1,0.0,0.0,62,0.00,CLR,,0.00,WeatherDisplay:10.37,2013-11-08 09:27:00,
2013-11-08 03:32:00,36.5,24.7,30.24,North,1,0.0,0.0,62,0.00,CLR,,0.00,WeatherDisplay:10.37,2013-11-08 09:32:00,
2013-11-08 03:37:00,36.5,24.7,30.24,North,1,0.0,0.0,62,0.00,CLR,,0.00,WeatherDisplay:10.37,2013-11-08 09:37:00,
2013-11-08 03:42:00,36.3,24.5,30.24,North,1,0.0,0.0,62,0.00,CLR,,0.00,WeatherDisplay:10.37,2013-11-08 09:42:00,
2013-11-08 03:47:00,36.3,24.5,30.23,North,1,0.0,0.0,62,0.00,CLR,,0.00,WeatherDisplay:10.37,2013-11-08 09:47:00,
2013-11-08 03:52:00,36.3,24.5,30.23,North,1,0.0,0.0,62,0.00,CLR,,0.00,WeatherDisplay:10.37,2013-11-08 09:52:00,
2013-11-08 03:57:00,36.3,24.9,30.23,North,1,0.0,0.0,63,0.00,CLR,,0.00,WeatherDisplay:10.37,2013-11-08 09:57:00,
2013-11-08 04:02:00,36.1,24.7,30.23,North,1,0.0,0.0,63,0.00,CLR,,0.00,WeatherDisplay:10.37,2013-11-08 10:02:00,
2013-11-08 04:07:00,36.1,24.7,30.23,North,1,0.0,0.0,63,0.00,CLR,,0.00,WeatherDisplay:10.37,2013-11-08 10:07:00,
2013-11-08 04:12:00,36.0,24.6,30.23,North,1,0.0,0.0,63,0.00,CLR,,0.00,WeatherDisplay:10.37,2013-11-08 10:12:00,
2013-11-08 04:17:00,36.0,24.6,30.23,North,1,0.0,0.0,63,0.00,CLR,,0.00,WeatherDisplay:10.37,2013-11-08 10:17:00,
2013-11-08 04:22:00,36.0,24.6,30.23,North,1,0.0,0.0,63,0.00,CLR,,0.00,WeatherDisplay:10.37,2013-11-08 10:22:00,
2013-11-08 04:27:00,36.0,25.0,30.23,North,1,0.0,0.0,64,0.00,CLR,,0.00,WeatherDisplay:10.37,2013-11-08 10:27:00,
2013-11-08 04:32:00,36.0,25.0,30.23,North,1,0.0,0.0,64,0.00,CLR,,0.00,WeatherDisplay:10.37,2013-11-08 10:32:00,
2013-11-08 04:37:00,36.0,25.0,30.22,North,1,0.0,0.0,64,0.00,CLR,,0.00,WeatherDisplay:10.37,2013-11-08 10:37:00,
2013-11-08 04:42:00,35.8,24.8,30.22,North,1,0.0,0.0,64,0.00,CLR,,0.00,WeatherDisplay:10.37,2013-11-08 10:42:00,
2013-11-08 04:47:00,35.8,24.8,30.22,North,1,0.0,0.0,64,0.00,CLR,,0.00,WeatherDisplay:10.37,2013-11-08 10:47:00,
2013-11-08 04:52:00,35.8,24.8,30.22,North,1,0.0,0.0,64,0.00,CLR,,0.00,WeatherDisplay:10.37,2013-11-08 10:52:00,
2013-11-08 04:57:00,35.6,25.0,30.22,North,1,0.0,0.0,65,0.00,CLR,,0.00,WeatherDisplay:10.37,2013-11-08 10:57:00,
2013-11-08 05:02:00,35.6,25.0,30.21,North,1,0.0,0.0,65,0.00,CLR,,0.00,WeatherDisplay:10.37,2013-11-08 11:02:00,
2013-11-08 05:07:00,35.6,25.0,30.21,North,1,0.0,0.0,65,0.00,CLR,,0.00,WeatherDisplay:10.37,2013-11-08 11:07:00,
2013-11-08 05:12:00,35.8,25.2,30.21,North,1,0.0,0.0,65,0.00,CLR,,0.00,WeatherDisplay:10.37,2013-11-08 11:12:00,
2013-11-08 05:17:00,35.8,25.2,30.20,North,1,0.0,0.0,65,0.00,CLR,,0.00,WeatherDisplay:10.37,2013-11-08 11:17:00,
2013-11-08 05:22:00,35.8,25.2,30.20,North,1,0.0,0.0,65,0.00,CLR,,0.00,WeatherDisplay:10.37,2013-11-08 11:22:00,
2013-11-08 05:27:00,36.0,25.3,30.20,North,1,0.0,0.0,65,0.00,CLR,,0.00,WeatherDisplay:10.37,2013-11-08 11:27:00,
2013-11-08 05:32:00,36.0,25.3,30.20,North,1,0.0,0.0,65,0.00,CLR,,0.00,WeatherDisplay:10.37,2013-11-08 11:32:00,
2013-11-08 05:37:00,36.0,25.3,30.20,North,1,0.0,0.0,65,0.00,CLR,,0.00,WeatherDisplay:10.37,2013-11-08 11:37:00,
2013-11-08 05:42:00,36.1,25.5,30.20,North,1,0.0,0.0,65,0.00,CLR,,0.00,WeatherDisplay:10.37,2013-11-08 11:42:00,
2013-11-08 05:47:00,36.3,25.7,30.20,North,1,0.0,0.0,65,0.00,CLR,,0.00,WeatherDisplay:10.37,2013-11-08 11:47:00,
2013-11-08 05:52:00,36.3,25.7,30.20,North,1,0.0,0.0,65,0.00,CLR,,0.00,WeatherDisplay:10.37,2013-11-08 11:52:00,
2013-11-08 05:57:00,36.5,25.8,30.20,North,1,0.0,0.0,65,0.00,CLR,,0.00,WeatherDisplay:10.37,2013-11-08 11:57:00,
2013-11-08 06:02:00,36.5,25.8,30.20,North,1,0.0,0.0,65,0.00,CLR,,0.00,WeatherDisplay:10.37,2013-11-08 12:02:00,
2013-11-08 06:07:00,36.5,25.8,30.20,North,1,0.0,0.0,65,0.00,CLR,,0.00,WeatherDisplay:10.37,2013-11-08 12:07:00,
2013-11-08 06:12:00,36.5,25.8,30.19,North,1,0.0,0.0,65,0.00,CLR,,0.00,WeatherDisplay:10.37,2013-11-08 12:12:00,
2013-11-08 06:17:00,36.5,25.8,30.18,North,1,0.0,0.0,65,0.00,CLR,,0.00,WeatherDisplay:10.37,2013-11-08 12:17:00,
2013-11-08 06:22:00,36.3,26.0,30.19,North,1,0.0,0.0,66,0.00,CLR,,0.00,WeatherDisplay:10.37,2013-11-08 12:22:00,
2013-11-08 06:27:00,36.3,25.7,30.18,North,1,0.0,0.0,65,0.00,CLR,,0.00,WeatherDisplay:10.37,2013-11-08 12:27:00,
2013-11-08 06:32:00,36.1,25.5,30.18,North,1,0.0,0.0,65,0.00,CLR,,0.00,WeatherDisplay:10.37,2013-11-08 12:32:00,
2013-11-08 06:37:00,36.0,25.7,30.18,North,1,0.0,0.0,66,0.00,CLR,,0.00,WeatherDisplay:10.37,2013-11-08 12:37:00,
2013-11-08 06:42:00,36.0,25.7,30.19,North,1,0.0,0.0,66,0.00,CLR,,0.00,WeatherDisplay:10.37,2013-11-08 12:42:00,
2013-11-08 06:47:00,36.0,25.7,30.18,North,1,0.0,0.0,66,0.00,CLR,,0.00,WeatherDisplay:10.37,2013-11-08 12:47:00,
2013-11-08 06:52:00,35.8,25.9,30.18,North,1,0.0,0.0,67,0.00,CLR,,0.00,WeatherDisplay:10.37,2013-11-08 12:52:00,
2013-11-08 06:57:00,35.8,25.9,30.17,North,1,0.0,0.0,67,0.00,CLR,,0.00,WeatherDisplay:10.37,2013-11-08 12:57:00,
2013-11-08 07:02:00,35.8,25.9,30.17,North,1,0.0,0.0,67,0.00,CLR,,0.00,WeatherDisplay:10.37,2013-11-08 13:02:00,
2013-11-08 07:07:00,36.0,26.1,30.17,North,1,0.0,0.0,67,0.00,CLR,,0.00,WeatherDisplay:10.37,2013-11-08 13:07:00,
2013-11-08 07:12:00,36.0,26.4,30.17,North,1,0.0,0.0,68,0.00,CLR,,0.00,WeatherDisplay:10.37,2013-11-08 13:12:00,
2013-11-08 07:17:00,36.3,26.8,30.17,North,1,0.0,0.0,68,0.00,CLR,,0.00,WeatherDisplay:10.37,2013-11-08 13:17:00,
2013-11-08 07:22:00,36.9,27.3,30.17,North,1,0.0,0.0,68,0.00,CLR,,0.00,WeatherDisplay:10.37,2013-11-08 13:22:00,
2013-11-08 07:27:00,40.3,29.8,30.16,North,1,0.0,0.0,66,0.00,CLR,,0.00,WeatherDisplay:10.37,2013-11-08 13:27:00,
2013-11-08 07:32:00,42.6,31.3,30.17,North,1,0.0,0.0,64,0.00,CLR,,0.00,WeatherDisplay:10.37,2013-11-08 13:32:00,
2013-11-08 07:37:00,43.2,31.4,30.16,North,1,0.0,0.0,63,0.00,CLR,,0.00,WeatherDisplay:10.37,2013-11-08 13:37:00,
2013-11-08 07:42:00,43.2,31.4,30.16,North,1,0.0,0.0,63,0.00,CLR,,0.00,WeatherDisplay:10.37,2013-11-08 13:42:00,
2013-11-08 07:47:00,42.4,30.7,30.16,North,1,0.0,0.0,63,0.00,CLR,,0.00,WeatherDisplay:10.37,2013-11-08 13:47:00,
2013-11-08 07:52:00,43.0,31.6,30.16,North,1,0.0,0.0,64,0.00,CLR,,0.00,WeatherDisplay:10.37,2013-11-08 13:52:00,
2013-11-08 07:57:00,43.5,32.1,30.16,North,1,0.0,0.0,64,0.00,CLR,,0.00,WeatherDisplay:10.37,2013-11-08 13:57:00,
2013-11-08 08:02:00,44.2,32.8,30.16,North,1,0.0,0.0,64,0.00,CLR,,0.00,WeatherDisplay:10.37,2013-11-08 14:02:00,
2013-11-08 08:07:00,45.5,33.6,30.15,North,1,0.0,0.0,63,0.00,CLR,,0.00,WeatherDisplay:10.37,2013-11-08 14:07:00,
2013-11-08 08:12:00,46.4,34.1,30.16,North,1,0.0,0.0,62,0.00,CLR,,0.00,WeatherDisplay:10.37,2013-11-08 14:12:00,
2013-11-08 08:17:00,47.3,34.5,30.16,North,1,0.0,0.0,61,0.00,CLR,,0.00,WeatherDisplay:10.37,2013-11-08 14:17:00,
2013-11-08 08:22:00,48.6,35.3,30.16,North,1,0.0,0.0,60,0.00,CLR,,0.00,WeatherDisplay:10.37,2013-11-08 14:22:00,
2013-11-08 08:27:00,49.1,35.4,30.16,North,1,0.0,0.0,59,0.00,CLR,,0.00,WeatherDisplay:10.37,2013-11-08 14:27:00,
2013-11-08 08:32:00,49.5,35.3,30.15,North,1,0.0,0.0,58,0.00,CLR,,0.00,WeatherDisplay:10.37,2013-11-08 14:32:00,
2013-11-08 08:37:00,49.8,35.6,30.15,North,1,0.0,0.0,58,0.00,CLR,,0.00,WeatherDisplay:10.37,2013-11-08 14:37:00,
2013-11-08 08:42:00,50.2,36.0,30.14,North,1,0.0,0.0,58,0.00,CLR,,0.00,WeatherDisplay:10.37,2013-11-08 14:42:00,
2013-11-08 08:47:00,50.5,36.3,30.14,North,1,0.0,0.0,58,0.00,CLR,,0.00,WeatherDisplay:10.37,2013-11-08 14:47:00,
2013-11-08 08:52:00,50.7,36.0,30.14,North,1,0.0,0.0,57,0.00,CLR,,0.00,WeatherDisplay:10.37,2013-11-08 14:52:00,
2013-11-08 08:57:00,50.9,36.2,30.14,North,1,0.0,0.0,57,0.00,CLR,,0.00,WeatherDisplay:10.37,2013-11-08 14:57:00,
2013-11-08 09:02:00,51.1,36.4,30.14,North,1,0.0,0.0,57,0.00,CLR,,0.00,WeatherDisplay:10.37,2013-11-08 15:02:00,
2013-11-08 09:07:00,51.4,36.7,30.14,North,1,0.0,0.0,57,0.00,CLR,,0.00,WeatherDisplay:10.37,2013-11-08 15:07:00,
2013-11-08 09:12:00,51.6,36.4,30.14,North,1,0.0,0.0,56,0.00,CLR,,0.00,WeatherDisplay:10.37,2013-11-08 15:12:00,
2013-11-08 09:17:00,51.6,36.0,30.13,North,1,0.0,0.0,55,0.00,CLR,,0.00,WeatherDisplay:10.37,2013-11-08 15:17:00,
2013-11-08 09:22:00,52.2,36.5,30.13,North,1,0.0,0.0,55,0.00,CLR,,0.00,WeatherDisplay:10.37,2013-11-08 15:22:00,
2013-11-08 09:27:00,52.9,37.1,30.13,North,1,0.0,0.0,55,0.00,CLR,,0.00,WeatherDisplay:10.37,2013-11-08 15:27:00,
2013-11-08 09:32:00,53.2,37.0,30.13,North,1,0.0,0.0,54,0.00,CLR,,0.00,WeatherDisplay:10.37,2013-11-08 15:32:00,
2013-11-08 09:37:00,54.1,37.4,30.12,North,1,0.0,0.0,53,0.00,CLR,,0.00,WeatherDisplay:10.37,2013-11-08 15:37:00,
2013-11-08 09:42:00,54.7,37.9,30.12,North,1,0.0,0.0,53,0.00,CLR,,0.00,WeatherDisplay:10.37,2013-11-08 15:42:00,
2013-11-08 09:47:00,55.0,37.7,30.13,North,1,0.0,0.0,52,0.00,CLR,,0.00,WeatherDisplay:10.37,2013-11-08 15:47:00,
2013-11-08 09:52:00,55.4,37.6,30.12,North,1,0.0,0.0,51,0.00,CLR,,0.00,WeatherDisplay:10.37,2013-11-08 15:52:00,
2013-11-08 09:57:00,55.2,37.4,30.12,North,1,0.0,0.0,51,0.00,CLR,,0.00,WeatherDisplay:10.37,2013-11-08 15:57:00,
2013-11-08 10:02:00,55.2,37.4,30.12,North,1,0.0,0.0,51,0.00,CLR,,0.00,WeatherDisplay:10.37,2013-11-08 16:02:00,
2013-11-08 10:07:00,55.6,38.2,30.11,North,1,0.0,0.0,52,0.00,CLR,,0.00,WeatherDisplay:10.37,2013-11-08 16:07:00,
2013-11-08 10:12:00,56.1,38.7,30.11,North,1,0.0,0.0,52,0.00,CLR,,0.00,WeatherDisplay:10.37,2013-11-08 16:12:00,
2013-11-08 10:17:00,57.6,39.0,30.10,North,1,0.0,0.0,50,0.00,CLR,,0.00,WeatherDisplay:10.37,2013-11-08 16:17:00,
2013-11-08 10:22:00,57.6,38.5,30.09,North,1,0.0,0.0,49,0.00,CLR,,0.00,WeatherDisplay:10.37,2013-11-08 16:22:00,
2013-11-08 10:27:00,58.3,39.2,30.09,North,1,0.0,0.0,49,0.00,CLR,,0.00,WeatherDisplay:10.37,2013-11-08 16:27:00,
2013-11-08 10:32:00,58.5,38.8,30.09,North,1,0.0,0.0,48,0.00,CLR,,0.00,WeatherDisplay:10.37,2013-11-08 16:32:00,
2013-11-08 10:37:00,57.9,38.3,30.08,North,1,0.0,0.0,48,0.00,CLR,,0.00,WeatherDisplay:10.37,2013-11-08 16:37:00,
2013-11-08 10:42:00,58.3,38.7,30.08,North,1,0.0,0.0,48,0.00,CLR,,0.00,WeatherDisplay:10.37,2013-11-08 16:42:00,
2013-11-08 10:47:00,59.2,39.5,30.08,North,1,0.0,0.0,48,0.00,CLR,,0.00,WeatherDisplay:10.37,2013-11-08 16:47:00,
2013-11-08 10:52:00,59.4,39.7,30.08,North,1,0.0,0.0,48,0.00,CLR,,0.00,WeatherDisplay:10.37,2013-11-08 16:52:00,
2013-11-08 10:57:00,59.2,38.9,30.08,North,1,0.0,0.0,47,0.00,CLR,,0.00,WeatherDisplay:10.37,2013-11-08 16:57:00,
2013-11-08 11:02:00,59.7,40.0,30.07,North,1,0.0,0.0,48,0.00,CLR,,0.00,WeatherDisplay:10.37,2013-11-08 17:02:00,
2013-11-08 11:07:00,59.4,39.1,30.08,North,1,0.0,0.0,47,0.00,CLR,,0.00,WeatherDisplay:10.37,2013-11-08 17:07:00,
2013-11-08 11:12:00,58.8,38.1,30.07,North,1,0.0,0.0,46,0.00,CLR,,0.00,WeatherDisplay:10.37,2013-11-08 17:12:00,
2013-11-08 11:17:00,58.8,38.6,30.06,North,1,0.0,0.0,47,0.00,CLR,,0.00,WeatherDisplay:10.37,2013-11-08 17:17:00,
2013-11-08 11:22:00,59.2,38.4,30.06,North,1,0.0,0.0,46,0.00,CLR,,0.00,WeatherDisplay:10.37,2013-11-08 17:22:00,
2013-11-08 11:27:00,59.2,37.8,30.06,North,1,0.0,0.0,45,0.00,CLR,,0.00,WeatherDisplay:10.37,2013-11-08 17:27:00,
2013-11-08 11:32:00,59.0,37.7,30.05,North,1,0.0,0.0,45,0.00,CLR,,0.00,WeatherDisplay:10.37,2013-11-08 17:32:00,
2013-11-08 11:37:00,58.8,38.1,30.04,North,1,0.0,0.0,46,0.00,CLR,,0.00,WeatherDisplay:10.37,2013-11-08 17:37:00,
2013-11-08 11:42:00,58.8,38.1,30.04,North,1,0.0,0.0,46,0.00,CLR,,0.00,WeatherDisplay:10.37,2013-11-08 17:42:00,
2013-11-08 11:47:00,58.6,37.3,30.04,North,1,0.0,0.0,45,0.00,CLR,,0.00,WeatherDisplay:10.37,2013-11-08 17:47:00,
2013-11-08 11:52:00,58.5,36.6,30.04,North,1,0.0,0.0,44,0.00,CLR,,0.00,WeatherDisplay:10.37,2013-11-08 17:52:00,
2013-11-08 11:57:00,58.5,36.6,30.04,North,1,0.0,0.0,44,0.00,CLR,,0.00,WeatherDisplay:10.37,2013-11-08 17:57:00,
2013-11-08 12:02:00,58.5,36.6,30.03,North,1,0.0,0.0,44,0.00,CLR,,0.00,WeatherDisplay:10.37,2013-11-08 18:02:00,
2013-11-08 12:07:00,58.6,36.8,30.03,North,1,0.0,0.0,44,0.00,CLR,,0.00,WeatherDisplay:10.37,2013-11-08 18:07:00,
2013-11-08 12:12:00,58.8,36.4,30.02,North,1,0.0,0.0,43,0.00,CLR,,0.00,WeatherDisplay:10.37,2013-11-08 18:12:00,
2013-11-08 12:17:00,58.8,35.8,30.02,North,1,0.0,0.0,42,0.00,CLR,,0.00,WeatherDisplay:10.37,2013-11-08 18:17:00,
2013-11-08 12:22:00,58.8,35.8,30.01,North,1,0.0,0.0,42,0.00,CLR,,0.00,WeatherDisplay:10.37,2013-11-08 18:22:00,
2013-11-08 12:27:00,59.2,36.1,30.01,North,1,0.0,0.0,42,0.00,CLR,,0.00,WeatherDisplay:10.37,2013-11-08 18:27:00,
2013-11-08 12:32:00,59.4,36.2,30.01,North,1,0.0,0.0,42,0.00,CLR,,0.00,WeatherDisplay:10.37,2013-11-08 18:32:00,
2013-11-08 12:37:00,59.5,37.0,29.99,North,1,0.0,0.0,43,0.00,CLR,,0.00,WeatherDisplay:10.37,2013-11-08 18:37:00,
2013-11-08 12:42:00,59.4,36.8,29.98,North,1,0.0,0.0,43,0.00,CLR,,0.00,WeatherDisplay:10.37,2013-11-08 18:42:00,
2013-11-08 12:47:00,59.5,36.4,29.97,North,1,0.0,0.0,42,0.00,CLR,,0.00,WeatherDisplay:10.37,2013-11-08 18:47:00,
2013-11-08 12:52:00,59.4,35.0,29.97,North,1,0.0,0.0,40,0.00,CLR,,0.00,WeatherDisplay:10.37,2013-11-08 18:52:00,
2013-11-08 12:57:00,59.4,35.0,29.97,North,1,0.0,0.0,40,0.00,CLR,,0.00,WeatherDisplay:10.37,2013-11-08 18:57:00,
2013-11-08 13:02:00,59.4,35.0,29.97,North,1,0.0,0.0,40,0.00,CLR,,0.00,WeatherDisplay:10.37,2013-11-08 19:02:00,
2013-11-08 13:07:00,59.7,35.3,29.96,North,1,0.0,0.0,40,0.00,CLR,,0.00,WeatherDisplay:10.37,2013-11-08 19:07:00,
2013-11-08 13:12:00,59.7,35.3,29.96,North,1,0.0,0.0,40,0.00,CLR,,0.00,WeatherDisplay:10.37,2013-11-08 19:12:00,
2013-11-08 13:17:00,60.1,35.0,29.95,North,1,0.0,0.0,39,0.00,CLR,,0.00,WeatherDisplay:10.37,2013-11-08 19:17:00,
2013-11-08 13:22:00,60.4,35.3,29.95,North,1,0.0,0.0,39,0.00,CLR,,0.00,WeatherDisplay:10.37,2013-11-08 19:22:00,
2013-11-08 13:27:00,60.8,35.0,29.95,North,1,0.0,0.0,38,0.00,CLR,,0.00,WeatherDisplay:10.37,2013-11-08 19:27:00,
2013-11-08 13:32:00,60.8,35.0,29.95,North,1,0.0,0.0,38,0.00,CLR,,0.00,WeatherDisplay:10.37,2013-11-08 19:32:00,
2013-11-08 13:37:00,60.8,35.0,29.94,North,1,0.0,0.0,38,0.00,CLR,,0.00,WeatherDisplay:10.37,2013-11-08 19:37:00,
2013-11-08 13:42:00,60.8,35.0,29.94,North,1,0.0,0.0,38,0.00,CLR,,0.00,WeatherDisplay:10.37,2013-11-08 19:42:00,
2013-11-08 13:47:00,60.8,35.0,29.94,North,1,0.0,0.0,38,0.00,CLR,,0.00,WeatherDisplay:10.37,2013-11-08 19:47:00,
2013-11-08 13:52:00,60.6,34.9,29.93,North,1,0.0,0.0,38,0.00,CLR,,0.00,WeatherDisplay:10.37,2013-11-08 19:52:00,
2013-11-08 13:57:00,60.6,34.9,29.93,North,1,0.0,0.0,38,0.00,CLR,,0.00,WeatherDisplay:10.37,2013-11-08 19:57:00,
2013-11-08 14:02:00,61.0,35.2,29.93,North,1,0.0,0.0,38,0.00,CLR,,0.00,WeatherDisplay:10.37,2013-11-08 20:02:00,
2013-11-08 14:07:00,61.2,34.7,29.92,North,1,0.0,0.0,37,0.00,CLR,,0.00,WeatherDisplay:10.37,2013-11-08 20:07:00,
2013-11-08 14:12:00,61.2,34.7,29.92,North,1,0.0,0.0,37,0.00,CLR,,0.00,WeatherDisplay:10.37,2013-11-08 20:12:00,
2013-11-08 14:17:00,61.0,34.5,29.92,North,1,0.0,0.0,37,0.00,CLR,,0.00,WeatherDisplay:10.37,2013-11-08 20:17:00,
2013-11-08 14:22:00,60.6,34.2,29.92,North,1,0.0,0.0,37,0.00,CLR,,0.00,WeatherDisplay:10.37,2013-11-08 20:22:00,
2013-11-08 14:27:00,61.0,35.2,29.92,North,1,0.0,0.0,38,0.00,CLR,,0.00,WeatherDisplay:10.37,2013-11-08 20:27:00,
2013-11-08 14:32:00,61.5,35.0,29.92,North,1,0.0,0.0,37,0.00,CLR,,0.00,WeatherDisplay:10.37,2013-11-08 20:32:00,
2013-11-08 14:37:00,61.7,35.1,29.90,North,1,0.0,0.0,37,0.00,CLR,,0.00,WeatherDisplay:10.37,2013-11-08 20:37:00,
2013-11-08 14:42:00,61.9,35.3,29.90,North,1,0.0,0.0,37,0.00,CLR,,0.00,WeatherDisplay:10.37,2013-11-08 20:42:00,
2013-11-08 14:47:00,61.9,35.3,29.90,North,1,0.0,0.0,37,0.00,CLR,,0.00,WeatherDisplay:10.37,2013-11-08 20:47:00,
2013-11-08 14:52:00,61.9,35.3,29.89,North,1,0.0,0.0,37,0.00,CLR,,0.00,WeatherDisplay:10.37,2013-11-08 20:52:00,
2013-11-08 14:57:00,61.9,35.3,29.90,North,1,0.0,0.0,37,0.00,CLR,,0.00,WeatherDisplay:10.37,2013-11-08 20:57:00,
2013-11-08 15:02:00,61.9,35.3,29.89,North,1,0.0,0.0,37,0.00,CLR,,0.00,WeatherDisplay:10.37,2013-11-08 21:02:00,
2013-11-08 15:07:00,61.9,35.3,29.89,North,1,0.0,0.0,37,0.00,CLR,,0.00,WeatherDisplay:10.37,2013-11-08 21:07:00,
2013-11-08 15:12:00,61.7,35.1,29.89,North,1,0.0,0.0,37,0.00,CLR,,0.00,WeatherDisplay:10.37,2013-11-08 21:12:00,
2013-11-08 15:17:00,61.7,35.1,29.89,North,1,0.0,0.0,37,0.00,CLR,,0.00,WeatherDisplay:10.37,2013-11-08 21:17:00,
2013-11-08 15:22:00,61.9,36.0,29.89,North,1,0.0,0.0,38,0.00,CLR,,0.00,WeatherDisplay:10.37,2013-11-08 21:22:00,
2013-11-08 15:27:00,61.9,36.0,29.89,North,1,0.0,0.0,38,0.00,CLR,,0.00,WeatherDisplay:10.37,2013-11-08 21:27:00,
2013-11-08 15:32:00,61.7,35.8,29.88,North,1,0.0,0.0,38,0.00,CLR,,0.00,WeatherDisplay:10.37,2013-11-08 21:32:00,
2013-11-08 15:37:00,61.7,36.5,29.88,North,1,0.0,0.0,39,0.00,CLR,,0.00,WeatherDisplay:10.37,2013-11-08 21:37:00,
2013-11-08 15:42:00,61.5,36.3,29.88,North,1,0.0,0.0,39,0.00,CLR,,0.00,WeatherDisplay:10.37,2013-11-08 21:42:00,
2013-11-08 15:47:00,61.2,36.0,29.88,North,1,0.0,0.0,39,0.00,CLR,,0.00,WeatherDisplay:10.37,2013-11-08 21:47:00,
2013-11-08 15:52:00,61.2,36.0,29.88,North,1,0.0,0.0,39,0.00,CLR,,0.00,WeatherDisplay:10.37,2013-11-08 21:52:00,
2013-11-08 15:57:00,61.2,35.3,29.88,North,1,0.0,0.0,38,0.00,CLR,,0.00,WeatherDisplay:10.37,2013-11-08 21:57:00,
2013-11-08 16:02:00,61.2,34.7,29.87,North,1,0.0,0.0,37,0.00,CLR,,0.00,WeatherDisplay:10.37,2013-11-08 22:02:00,
2013-11-08 16:07:00,61.2,35.3,29.86,North,1,0.0,0.0,38,0.00,CLR,,0.00,WeatherDisplay:10.37,2013-11-08 22:07:00,
2013-11-08 16:12:00,61.2,35.3,29.87,North,1,0.0,0.0,38,0.00,CLR,,0.00,WeatherDisplay:10.37,2013-11-08 22:12:00,
2013-11-08 16:17:00,61.2,35.3,29.88,North,1,0.0,0.0,38,0.00,CLR,,0.00,WeatherDisplay:10.37,2013-11-08 22:17:00,
2013-11-08 16:22:00,61.0,35.2,29.88,North,1,0.0,0.0,38,0.00,CLR,,0.00,WeatherDisplay:10.37,2013-11-08 22:22:00,
2013-11-08 16:27:00,61.0,35.2,29.87,North,1,0.0,0.0,38,0.00,CLR,,0.00,WeatherDisplay:10.37,2013-11-08 22:27:00,
2013-11-08 16:32:00,60.6,35.5,29.87,North,1,0.0,0.0,39,0.00,CLR,,0.00,WeatherDisplay:10.37,2013-11-08 22:32:00,
2013-11-08 16:37:00,60.3,35.2,29.88,North,1,0.0,0.0,39,0.00,CLR,,0.00,WeatherDisplay:10.37,2013-11-08 22:37:00,
2013-11-08 16:42:00,60.1,35.7,29.88,North,1,0.0,0.0,40,0.00,CLR,,0.00,WeatherDisplay:10.37,2013-11-08 22:42:00,
2013-11-08 16:47:00,59.9,35.5,29.88,North,1,0.0,0.0,40,0.00,CLR,,0.00,WeatherDisplay:10.37,2013-11-08 22:47:00,
2013-11-08 16:52:00,59.4,35.0,29.88,North,1,0.0,0.0,40,0.00,CLR,,0.00,WeatherDisplay:10.37,2013-11-08 22:52:00,
2013-11-08 16:57:00,59.2,34.9,29.88,North,1,0.0,0.0,40,0.00,CLR,,0.00,WeatherDisplay:10.37,2013-11-08 22:57:00,
2013-11-08 17:02:00,59.2,35.5,29.88,North,1,0.0,0.0,41,0.00,CLR,,0.00,WeatherDisplay:10.37,2013-11-08 23:02:00,
2013-11-08 17:07:00,58.5,35.4,29.88,North,1,0.0,0.0,42,0.00,CLR,,0.00,WeatherDisplay:10.37,2013-11-08 23:07:00,
2013-11-08 17:12:00,58.3,35.3,29.88,North,1,0.0,0.0,42,0.00,CLR,,0.00,WeatherDisplay:10.37,2013-11-08 23:12:00,
2013-11-08 17:17:00,57.9,34.9,29.88,North,1,0.0,0.0,42,0.00,CLR,,0.00,WeatherDisplay:10.37,2013-11-08 23:17:00,
2013-11-08 17:22:00,57.6,35.2,29.88,North,1,0.0,0.0,43,0.00,CLR,,0.00,WeatherDisplay:10.37,2013-11-08 23:22:00,
2013-11-08 17:27:00,57.6,35.2,29.88,North,1,0.0,0.0,43,0.00,CLR,,0.00,WeatherDisplay:10.37,2013-11-08 23:27:00,
2013-11-08 17:32:00,57.6,35.2,29.88,North,1,0.0,0.0,43,0.00,CLR,,0.00,WeatherDisplay:10.37,2013-11-08 23:32:00,
2013-11-08 17:37:00,57.4,35.6,29.88,North,1,0.0,0.0,44,0.00,CLR,,0.00,WeatherDisplay:10.37,2013-11-08 23:37:00,
2013-11-08 17:42:00,57.0,35.3,29.88,North,1,0.0,0.0,44,0.00,CLR,,0.00,WeatherDisplay:10.37,2013-11-08 23:42:00,
2013-11-08 17:47:00,56.8,35.1,29.89,North,1,0.0,0.0,44,0.00,CLR,,0.00,WeatherDisplay:10.37,2013-11-08 23:47:00,
2013-11-08 17:52:00,56.7,35.0,29.89,North,1,0.0,0.0,44,0.00,CLR,,0.00,WeatherDisplay:10.37,2013-11-08 23:52:00,
2013-11-08 17:57:00,56.5,34.8,29.90,North,1,0.0,0.0,44,0.00,CLR,,0.00,WeatherDisplay:10.37,2013-11-08 23:57:00,
2013-11-08 18:02:00,56.3,35.2,29.91,North,1,0.0,0.0,45,0.00,CLR,,0.00,WeatherDisplay:10.37,2013-11-09 00:02:00,
2013-11-08 18:07:00,56.1,35.1,29.91,North,1,0.0,0.0,45,0.00,CLR,,0.00,WeatherDisplay:10.37,2013-11-09 00:07:00,
2013-11-08 18:12:00,56.1,35.1,29.92,North,1,0.0,0.0,45,0.00,CLR,,0.00,WeatherDisplay:10.37,2013-11-09 00:12:00,
2013-11-08 18:17:00,55.8,34.7,29.91,North,1,0.0,0.0,45,0.00,CLR,,0.00,WeatherDisplay:10.37,2013-11-09 00:17:00,
2013-11-08 18:22:00,55.8,34.7,29.91,North,1,0.0,0.0,45,0.00,CLR,,0.00,WeatherDisplay:10.37,2013-11-09 00:22:00,
2013-11-08 18:27:00,55.6,34.6,29.91,North,1,0.0,0.0,45,0.00,CLR,,0.00,WeatherDisplay:10.37,2013-11-09 00:27:00,
2013-11-08 18:32:00,55.6,34.6,29.91,North,1,0.0,0.0,45,0.00,CLR,,0.00,WeatherDisplay:10.37,2013-11-09 00:32:00,
2013-11-08 18:37:00,55.2,34.8,29.91,North,1,0.0,0.0,46,0.00,CLR,,0.00,WeatherDisplay:10.37,2013-11-09 00:37:00,
2013-11-08 18:42:00,54.9,34.5,29.92,North,1,0.0,0.0,46,0.00,CLR,,0.00,WeatherDisplay:10.37,2013-11-09 00:42:00,
2013-11-08 18:47:00,54.9,34.5,29.93,North,1,0.0,0.0,46,0.00,CLR,,0.00,WeatherDisplay:10.37,2013-11-09 00:47:00,
2013-11-08 18:52:00,54.7,34.3,29.93,North,1,0.0,0.0,46,0.00,CLR,,0.00,WeatherDisplay:10.37,2013-11-09 00:52:00,
2013-11-08 18:57:00,54.5,34.1,29.93,North,1,0.0,0.0,46,0.00,CLR,,0.00,WeatherDisplay:10.37,2013-11-09 00:57:00,
2013-11-08 19:02:00,54.5,34.1,29.93,North,1,0.0,0.0,46,0.00,CLR,,0.00,WeatherDisplay:10.37,2013-11-09 01:02:00,
2013-11-08 19:07:00,54.3,34.0,29.93,North,1,0.0,0.0,46,0.00,CLR,,0.00,WeatherDisplay:10.37,2013-11-09 01:07:00,
2013-11-08 19:12:00,54.1,33.8,29.93,North,1,0.0,0.0,46,0.00,CLR,,0.00,WeatherDisplay:10.37,2013-11-09 01:12:00,
2013-11-08 19:17:00,54.0,33.6,29.93,North,1,0.0,0.0,46,0.00,CLR,,0.00,WeatherDisplay:10.37,2013-11-09 01:17:00,
2013-11-08 19:22:00,54.0,33.6,29.93,North,1,0.0,0.0,46,0.00,CLR,,0.00,WeatherDisplay:10.37,2013-11-09 01:22:00,
2013-11-08 19:27:00,54.0,34.2,29.93,North,1,0.0,0.0,47,0.00,CLR,,0.00,WeatherDisplay:10.37,2013-11-09 01:27:00,
2013-11-08 19:32:00,54.0,34.2,29.93,North,1,0.0,0.0,47,0.00,CLR,,0.00,WeatherDisplay:10.37,2013-11-09 01:32:00,
2013-11-08 19:37:00,53.8,34.0,29.93,North,1,0.0,0.0,47,0.00,CLR,,0.00,WeatherDisplay:10.37,2013-11-09 01:37:00,
2013-11-08 19:42:00,53.6,33.8,29.93,North,1,0.0,0.0,47,0.00,CLR,,0.00,WeatherDisplay:10.37,2013-11-09 01:42:00,
2013-11-08 19:47:00,53.2,33.5,29.93,North,1,0.0,0.0,47,0.00,CLR,,0.00,WeatherDisplay:10.37,2013-11-09 01:47:00,
2013-11-08 19:52:00,53.1,33.9,29.93,North,1,0.0,0.0,48,0.00,CLR,,0.00,WeatherDisplay:10.37,2013-11-09 01:52:00,
2013-11-08 19:57:00,52.7,33.5,29.93,North,1,0.0,0.0,48,0.00,CLR,,0.00,WeatherDisplay:10.37,2013-11-09 01:57:00,
2013-11-08 20:02:00,52.5,33.9,29.93,North,1,0.0,0.0,49,0.00,CLR,,0.00,WeatherDisplay:10.37,2013-11-09 02:02:00,
2013-11-08 20:07:00,52.5,33.9,29.93,North,1,0.0,0.0,49,0.00,CLR,,0.00,WeatherDisplay:10.37,2013-11-09 02:07:00,
2013-11-08 20:12:00,52.5,33.9,29.93,North,1,0.0,0.0,49,0.00,CLR,,0.00,WeatherDisplay:10.37,2013-11-09 02:12:00,
2013-11-08 20:17:00,52.5,33.9,29.93,North,1,0.0,0.0,49,0.00,CLR,,0.00,WeatherDisplay:10.37,2013-11-09 02:17:00,
2013-11-08 20:22:00,51.8,33.7,29.93,North,1,0.0,0.0,50,0.00,CLR,,0.00,WeatherDisplay:10.37,2013-11-09 02:22:00,
2013-11-08 20:27:00,51.6,34.1,29.93,North,1,0.0,0.0,51,0.00,CLR,,0.00,WeatherDisplay:10.37,2013-11-09 02:27:00,
2013-11-08 20:32:00,51.6,34.1,29.93,North,1,0.0,0.0,51,0.00,CLR,,0.00,WeatherDisplay:10.37,2013-11-09 02:32:00,
2013-11-08 20:37:00,51.6,34.1,29.93,North,1,0.0,0.0,51,0.00,CLR,,0.00,WeatherDisplay:10.37,2013-11-09 02:37:00,
2013-11-08 20:42:00,51.6,34.1,29.93,North,1,0.0,0.0,51,0.00,CLR,,0.00,WeatherDisplay:10.37,2013-11-09 02:42:00,
2013-11-08 20:47:00,51.6,34.1,29.93,North,1,0.0,0.0,51,0.00,CLR,,0.00,WeatherDisplay:10.37,2013-11-09 02:47:00,
2013-11-08 20:52:00,51.6,34.6,29.93,North,1,0.0,0.0,52,0.00,CLR,,0.00,WeatherDisplay:10.37,2013-11-09 02:52:00,
2013-11-08 20:57:00,51.6,34.6,29.94,North,1,0.0,0.0,52,0.00,CLR,,0.00,WeatherDisplay:10.37,2013-11-09 02:57:00,
2013-11-08 21:02:00,51.6,34.6,29.94,North,1,0.0,0.0,52,0.00,CLR,,0.00,WeatherDisplay:10.37,2013-11-09 03:02:00,
2013-11-08 21:07:00,51.6,34.6,29.94,North,1,0.0,0.0,52,0.00,CLR,,0.00,WeatherDisplay:10.37,2013-11-09 03:07:00,
2013-11-08 21:12:00,51.6,34.6,29.94,North,1,0.0,0.0,52,0.00,CLR,,0.00,WeatherDisplay:10.37,2013-11-09 03:12:00,
2013-11-08 21:17:00,51.6,34.6,29.94,North,1,0.0,0.0,52,0.00,CLR,,0.00,WeatherDisplay:10.37,2013-11-09 03:17:00,
2013-11-08 21:22:00,51.6,34.6,29.94,North,1,0.0,0.0,52,0.00,CLR,,0.00,WeatherDisplay:10.37,2013-11-09 03:22:00,
2013-11-08 21:27:00,51.6,34.6,29.94,North,1,0.0,0.0,52,0.00,CLR,,0.00,WeatherDisplay:10.37,2013-11-09 03:27:00,
2013-11-08 21:32:00,51.6,34.6,29.95,North,1,0.0,0.0,52,0.00,CLR,,0.00,WeatherDisplay:10.37,2013-11-09 03:32:00,
2013-11-08 21:37:00,51.6,34.6,29.95,North,1,0.0,0.0,52,0.00,CLR,,0.00,WeatherDisplay:10.37,2013-11-09 03:37:00,
2013-11-08 21:42:00,51.6,34.6,29.95,North,1,0.0,0.0,52,0.00,CLR,,0.00,WeatherDisplay:10.37,2013-11-09 03:42:00,
2013-11-08 21:47:00,51.6,34.6,29.95,North,1,0.0,0.0,52,0.00,CLR,,0.00,WeatherDisplay:10.37,2013-11-09 03:47:00,
2013-11-08 21:52:00,51.4,34.4,29.95,North,1,0.0,0.0,52,0.00,CLR,,0.00,WeatherDisplay:10.37,2013-11-09 03:52:00,
2013-11-08 21:57:00,51.4,33.9,29.95,North,1,0.0,0.0,51,0.00,CLR,,0.00,WeatherDisplay:10.37,2013-11-09 03:57:00,
2013-11-08 22:02:00,51.4,33.9,29.95,North,1,0.0,0.0,51,0.00,CLR,,0.00,WeatherDisplay:10.37,2013-11-09 04:02:00,
2013-11-08 22:07:00,51.4,33.9,29.95,North,1,0.0,0.0,51,0.00,CLR,,0.00,WeatherDisplay:10.37,2013-11-09 04:07:00,
2013-11-08 22:12:00,51.4,33.9,29.95,North,1,0.0,0.0,51,0.00,CLR,,0.00,WeatherDisplay:10.37,2013-11-09 04:12:00,
2013-11-08 22:17:00,51.3,33.7,29.95,North,1,0.0,0.0,51,0.00,CLR,,0.00,WeatherDisplay:10.37,2013-11-09 04:17:00,
2013-11-08 22:22:00,51.3,33.7,29.95,North,1,0.0,0.0,51,0.00,CLR,,0.00,WeatherDisplay:10.37,2013-11-09 04:22:00,
2013-11-08 22:27:00,51.3,33.7,29.96,North,1,0.0,0.0,51,0.00,CLR,,0.00,WeatherDisplay:10.37,2013-11-09 04:27:00,
2013-11-08 22:32:00,51.3,33.7,29.96,North,1,0.0,0.0,51,0.00,CLR,,0.00,WeatherDisplay:10.37,2013-11-09 04:32:00,
2013-11-08 22:37:00,51.3,33.7,29.95,North,1,0.0,0.0,51,0.00,CLR,,0.00,WeatherDisplay:10.37,2013-11-09 04:37:00,
2013-11-08 22:42:00,51.3,33.7,29.96,North,1,0.0,0.0,51,0.00,CLR,,0.00,WeatherDisplay:10.37,2013-11-09 04:42:00,
2013-11-08 22:47:00,51.3,33.7,29.96,North,1,0.0,0.0,51,0.00,CLR,,0.00,WeatherDisplay:10.37,2013-11-09 04:47:00,
2013-11-08 22:52:00,51.3,33.7,29.96,North,1,0.0,0.0,51,0.00,CLR,,0.00,WeatherDisplay:10.37,2013-11-09 04:52:00,
2013-11-08 22:57:00,51.3,34.2,29.95,North,1,0.0,0.0,52,0.00,CLR,,0.00,WeatherDisplay:10.37,2013-11-09 04:57:00,
2013-11-08 23:01:00,51.3,33.7,29.95,North,1,0.0,0.0,51,0.00,CLR,,0.00,WeatherDisplay:10.37,2013-11-09 05:01:00,
2013-11-08 23:06:00,51.3,34.2,29.96,North,1,0.0,0.0,52,0.00,CLR,,0.00,WeatherDisplay:10.37,2013-11-09 05:06:00,
2013-11-08 23:11:00,51.1,34.1,29.95,North,1,0.0,0.0,52,0.00,CLR,,0.00,WeatherDisplay:10.37,2013-11-09 05:11:00,
2013-11-08 23:16:00,51.1,34.1,29.95,North,1,0.0,0.0,52,0.00,CLR,,0.00,WeatherDisplay:10.37,2013-11-09 05:16:00,
2013-11-08 23:21:00,50.9,33.9,29.95,North,1,0.0,0.0,52,0.00,CLR,,0.00,WeatherDisplay:10.37,2013-11-09 05:21:00,
2013-11-08 23:26:00,50.9,33.9,29.95,North,1,0.0,0.0,52,0.00,CLR,,0.00,WeatherDisplay:10.37,2013-11-09 05:26:00,
2013-11-08 23:31:00,50.7,34.2,29.96,North,1,0.0,0.0,53,0.00,CLR,,0.00,WeatherDisplay:10.37,2013-11-09 05:31:00,
2013-11-08 23:36:00,50.5,34.0,29.96,North,1,0.0,0.0,53,0.00,CLR,,0.00,WeatherDisplay:10.37,2013-11-09 05:36:00,
2013-11-08 23:41:00,50.4,33.9,29.96,North,1,0.0,0.0,53,0.00,CLR,,0.00,WeatherDisplay:10.37,2013-11-09 05:41:00,
2013-11-08 23:46:00,50.4,33.9,29.96,North,1,0.0,0.0,53,0.00,CLR,,0.00,WeatherDisplay:10.37,2013-11-09 05:46:00,
2013-11-08 23:51:00,50.4,33.9,29.96,North,1,0.0,0.0,53,0.00,CLR,,0.00,WeatherDisplay:10.37,2013-11-09 05:51:00,
2013-11-08 23:56:00,50.2,33.7,29.96,North,1,0.0,0.0,53,0.00,CLR,,0.00,WeatherDisplay:10.37,2013-11-09 05:56:00,